星链-5711 (STARLINK-5711 )

导读

STARLINK-5711是美国太空探索技术公司(SpaceX)旗下星链(Starlink)互联网卫星星座的一员,于2023年2月2日发射升空,运行于近地轨道。星链星座旨在为全球提供高速宽带互联网服务,尤其覆盖偏远地区与网络基础设施薄弱区域。作为大规模组网的卫星之一,STARLINK-5711助力星链扩展全球覆盖规模,支撑低轨卫星互联网的持续组网与服务能力提升。

Basic Information
目录编号:
55471
目录名称:
STARLINK-5711
国际标识:
2023-015Y
轨道中心:
EARTH
卫星名称:
星链-5711
卫星全名:
星链-5711 (STARLINK-5711 )
卫星状态:
在轨 (已飞行1310 天)
发射日期:
2023-02-02 UTC
国别 :
美国 (US)
星等 :
--
Orbit Information
数据来源 国际轨道数据
星历时间: 2026-09-04T06:13:32+0800
14小时前
查看轨道信息
半长轴: 6861.192km
偏心率: 0.0001449
轨道倾角: 43.003°
近地点辐角 265.253°
升交点赤经 41.904°
平近点角 94.815°
近地点: 482.06km
远地点: 484.05km
周期: 94.267分钟
每日圈数: 15.275783
Detailed Information
固有亮度:
5
最大亮度:
2.5
卫星平台:
Starlink v1.5
覆盖范围:
全球
运营商:
太空探索技术公司
运营商所在国:
美国
制造商(研发单位):
太空探索技术公司
制造商所在国:
美国
使用方式:
暂无
Satellite Introduction
星链(Starlink)计划是由太空探索技术公司(SpaceX)提出的一个巨型低轨卫星互联网星座项目,计划在2019年至2024年间在太空搭建由约1.2万颗卫星组成的“星链”网络,其中1584颗将部署在地球上空550千米处的近地轨道,并从2020年开始工作。该卫星仍在工作。
2D Orbit Map
3D Orbit Map
Orbit Altitude Analysis Chart
Orbit Inclination Analysis Chart
Orbit Comprehensive Analysis Chart
View Comprehensive Chart
Conjunction Data List
Event ID Objects TCA Miss Dist (km) Collision Risk Probability Collision Risk Index (CRI) Action
CDM_260903-113205-547106-643922
2026-09-03T
11:32:34+0000
0.358 km
远距离
2.231485E-4 高风险 0.82
CDM_260905-042604-702905-547121
2026-09-05T
04:26:20+0000
1.230 km
极远距离
1.125105E-5 中风险 0.56
CDM_260903-152705-547106-643922
2026-09-03T
15:27:56+0000
1.090 km
极远距离
9.106204E-6 低风险 0.54
CDM_260828-193705-547106-793721
2026-08-28T
19:37:11+0000
1.558 km
极远距离
4.465218E-6 低风险 0.48
CDM_260828-211105-547106-793721
2026-08-28T
21:11:20+0000
2.115 km
极远距离
1.917811E-6 低风险 0.41